TimePDT,TemperatureF,Dew PointF,Humidity,Sea Level PressureIn,VisibilityMPH,Wind Direction,Wind SpeedMPH,Gust SpeedMPH,PrecipitationIn,Events,Conditions,WindDirDegrees,DateUTC
12:56 AM,41.0,34.0,76,30.36,10.0,SW,3.5,-,N/A,,Overcast,220,2013-03-11 07:56:00
1:56 AM,37.9,33.1,83,30.35,10.0,SW,4.6,-,N/A,,Scattered Clouds,220,2013-03-11 08:56:00
2:56 AM,35.1,30.9,85,30.35,10.0,South,4.6,-,N/A,,Clear,170,2013-03-11 09:56:00
4:56 AM,33.1,30.0,89,30.34,10.0,Calm,Calm,-,N/A,,Partly Cloudy,0,2013-03-11 11:56:00
5:56 AM,34.0,30.9,89,30.35,10.0,Calm,Calm,-,N/A,,Partly Cloudy,0,2013-03-11 12:56:00
6:56 AM,35.1,32.0,89,30.34,10.0,South,5.8,-,N/A,,Overcast,170,2013-03-11 13:56:00
7:56 AM,36.0,33.1,89,30.35,10.0,South,3.5,-,N/A,,Partly Cloudy,180,2013-03-11 14:56:00
8:56 AM,39.9,34.0,79,30.34,10.0,SSE,3.5,-,N/A,,Clear,150,2013-03-11 15:56:00
9:56 AM,46.0,37.0,71,30.33,10.0,SSE,3.5,-,N/A,,Mostly Cloudy,150,2013-03-11 16:56:00
10:56 AM,50.0,37.0,61,30.31,10.0,SSW,3.5,-,N/A,,Mostly Cloudy,200,2013-03-11 17:56:00
11:56 AM,51.1,37.0,59,30.31,10.0,Variable,4.6,-,N/A,,Mostly Cloudy,0,2013-03-11 18:56:00
12:56 PM,55.0,37.9,53,30.28,10.0,North,8.1,-,N/A,,Clear,350,2013-03-11 19:56:00
1:56 PM,55.9,37.0,49,30.27,10.0,NNW,11.5,16.1,N/A,,Mostly Cloudy,340,2013-03-11 20:56:00
2:56 PM,55.9,39.0,53,30.27,10.0,NW,9.2,-,N/A,,Mostly Cloudy,320,2013-03-11 21:56:00
3:56 PM,55.9,37.0,49,30.26,10.0,NNW,11.5,-,N/A,,Partly Cloudy,330,2013-03-11 22:56:00
4:56 PM,55.0,37.9,53,30.27,10.0,North,11.5,-,N/A,,Mostly Cloudy,350,2013-03-11 23:56:00
5:56 PM,54.0,37.9,55,30.25,10.0,WNW,10.4,-,0.00,,Overcast,300,2013-03-12 00:56:00
6:56 PM,52.0,37.9,59,30.24,10.0,NNW,5.8,-,N/A,,Overcast,340,2013-03-12 01:56:00
7:56 PM,48.9,37.9,66,30.26,10.0,NW,4.6,-,N/A,,Mostly Cloudy,310,2013-03-12 02:56:00
8:56 PM,46.9,37.0,68,30.27,10.0,NNW,3.5,-,N/A,,Mostly Cloudy,330,2013-03-12 03:56:00
9:56 PM,41.0,35.1,79,30.26,10.0,North,3.5,-,N/A,,Scattered Clouds,360,2013-03-12 04:56:00
11:56 PM,42.1,36.0,79,30.25,10.0,SW,3.5,-,N/A,,Scattered Clouds,220,2013-03-12 06:56:00